Probability
0 0 0 0 0 0 0 0 0 0 0 0 0 0 0 0 0 0 0 0 0 0 0 0 0 0 0 0 0 0 0 0 0 0 0 0 0 0 0 0 0 0 0 0
0 0 0 0 0 0 0 0 0 0 0 0 0 0 0 0 0 0 0 0 0 0 0 0 0 0 0 0 0 0 0 0 0 0 0 0 0 0 0 0 0 0 0 0
0 0 0 0 0 0 0 0 0 0 0 0 0 0 0 0 0 0 0 0 0 0 0 0 0 0 0 0 0 0 0 0 0 0 0 0 0 0 0 0 0 0 0 0
0 0 0 0 0 0 0 0 0 0 0 0 0 0 0 0 0 0 0 0 0 0 0 0 0 0 0 0 0 0 0 0 0 0 0 0 0 0 0 0 0 0 0 0
0 0 0 0 0 0 0 0 0 0 0 0 0 0 0 0 0 0 0 0 0 0 0 0 0 0 0 0 0 0 0 0 0 0 0 0 0 0 0 0 0 0 0 0
0 0 0 0 0 0 0 0 0 0 0 0 0 0 0 0 0 0 0 0 0 0 0 0 0 0 0 0 0 0 0 0 0 0 0 0 0 0 0 0 0 0 0 0
0 0 0 0 0 0 0 0 0 0 0 0 0 0 0 0 0 0 0 0 0 0 0 0 0 0 0 0 0 0 0 0 0 0 0 0 0 0 0 0 0 0 0 0
0 0 0 0 0 0 0 0 0 0 0 0 0 0 0 0 0 0 0 0 0 0 0 0 0 0 0 0 0 0 0 0 0 0 0 0 0 0 0 0 0 0 0 0
0 0 0 0 0 0 0 0 0 0 0 0 0 0 0 0 0 0 0 0 0 0 0 0 0 0 0 0 0 0 0 0 0 0 0 0 0 0 0 0 0 0 0 0
0 0 0 0 0 0 0 0 0 0 0 0 0 0 0 0 0 0 0 0 0 0 0 0 0 0 0 0 0 0 0 0 0 0 0 0 0 0 0 0 0 0 0 0
0 0 0 0 0 0 0 0 0 0 0 0 0 0 0 0 0 0 0 0 0 0 0 0 0 0 0 0 0 0 0 0 0 0 0 0 0 0 0 0 0 0 0 0
0 0 0 0 0 0 0 0 0 0 0 0 0 0 0 0 0 0 0 6 0 0 0 0 0 0 0 0 0 0 0 0 0 0 0 0 0 0 0 0 0 0 0 0
0 0 0 0 0 0 0 0 0 0 0 0 0 0 0 0 0 0 0 0 3 0 0 0 0 0 0 0 0 0 0 0 0 0 0 0 0 0 0 0 0 0 0 0
0 0 0 0 0 0 0 0 0 0 0 0 0 0 0 0 0 0 0 0 0 0 0 0 0 0 0 0 0 0 0 0 0 0 0 0 0 0 0 0 0 0 0 0
0 0 0 0 0 0 0 0 0 0 0 0 0 0 0 0 0 0 0 0 0 0 0 0 0 0 0 0 0 0 0 0 0 0 0 0 0 0 0 0 0 0 0 0
0 0 0 0 0 0 0 0 0 0 0 0 0 0 0 0 0 0 0 0 0 0 0 0 0 0 0 0 0 0 0 0 0 0 0 0 0 0 0 0 0 0 0 0
0 0 0 0 0 0 0 0 0 0 0 0 0 0 0 0 0 0 0 0 0 0 0 0 0 0 0 0 0 0 0 0 0 0 0 0 0 0 0 0 0 0 0 0
0 0 0 0 0 0 0 0 0 0 0 0 0 0 0 0 0 0 0 0 0 0 0 0 0 0 0 0 0 0 0 0 0 0 0 0 0 0 0 0 0 0 0 0
0 0 0 0 0 0 0 0 0 0 0 0 0 0 0 0 0 0 0 0 0 0 0 0 0 0 0 0 0 0 0 0 0 0 0 0 0 0 0 0 0 0 0 0
0 0 0 0 0 0 0 0 0 0 0 0 0 0 0 0 0 0 0 0 0 0 0 0 0 0 0 0 0 0 0 0 0 0 0 0 0 0 0 0 0 0 0 0
0 0 0 0 0 0 0 0 0 0 0 0 0 0 0 0 0 0 0 0 0 0 0 0 0 0 0 0 0 0 0 0 0 0 0 0 0 0 0 0 0 0 0 0
0 0 0 0 0 0 0 0 0 0 0 0 0 0 0 0 0 0 0 0 0 0 0 0 0 0 0 0 0 0 0 0 0 0 0 0 0 0 0 0 0 0 0 0
0 0 0 0 0 0 0 0 0 0 0 0 0 0 0 0 0 0 0 0 0 0 0 0 0 0 0 0 0 0 0 0 0 0 0 0 0 0 0 0 0 0 0 0
0 0 0 0 0 0 0 0 0 0 0 0 0 0 0 0 0 0 0 0 0 0 0 0 0 0 0 0 0 0 0 0 0 0 0 0 0 0 0 0 0 0 0 0
0 0 0 0 0 0 0 0 0 0 0 0 0 0 0 0 0 0 0 0 0 0 0 0 0 0 0 0 0 0 0 0 0 0 0 0 0 0 0 0 0 0 0 0
0 0 0 0 0 0 0 0 0 0 0 0 0 0 0 0 0 0 0 0 0 0 0 0 0 0 0 0 0 0 0 0 0 0 0 0 0 0 0 0 0 0 0 0
0 0 0 0 0 0 0 0 0 0 0 0 0 0 0 0 0 0 0 0 0 0 0 0 0 0 0 0 0 0 0 0 0 0 0 0 0 0 0 0 0 0 0 0
Height
5823 5820 5816 5813 5810 5805 5801 5798 5794 5791 5786 5782 5776 5771 5767 5763 5760 5759 5758 5756 5754 5751 5747 5742 5736 5731 5725 5719 5713 5708 5704 5702 5702 5702 5702 5704 5706 5708 5711 5714 5718 5720 5723 5725
5818 5814 5811 5807 5803 5799 5795 5792 5788 5783 5779 5774 5768 5763 5759 5755 5752 5750 5748 5747 5745 5742 5739 5734 5729 5725 5719 5714 5709 5704 5701 5700 5700 5701 5701 5702 5704 5705 5708 5711 5713 5715 5717 5719
5813 5809 5806 5802 5798 5793 5789 5786 5781 5776 5773 5767 5762 5757 5753 5748 5744 5742 5740 5738 5736 5734 5731 5727 5723 5719 5715 5711 5706 5703 5701 5700 5699 5699 5700 5701 5702 5703 5705 5707 5708 5710 5712 5713
5807 5805 5801 5799 5792 5788 5784 5780 5774 5769 5765 5760 5755 5751 5746 5741 5737 5734 5731 5729 5727 5725 5723 5720 5717 5714 5711 5707 5704 5701 5699 5698 5698 5698 5698 5698 5699 5700 5701 5702 5703 5704 5706 5707
5802 5798 5794 5791 5785 5780 5776 5773 5767 5762 5757 5752 5747 5743 5739 5733 5730 5727 5723 5720 5718 5717 5716 5714 5711 5709 5706 5704 5701 5699 5698 5697 5696 5696 5696 5695 5695 5696 5696 5697 5697 5698 5699 5700
5795 5791 5788 5785 5777 5772 5769 5764 5758 5753 5749 5744 5739 5736 5733 5726 5722 5719 5715 5712 5710 5710 5709 5708 5706 5704 5702 5700 5698 5697 5696 5695 5694 5693 5693 5692 5692 5692 5691 5691 5692 5693 5693 5694
5789 5784 5780 5775 5769 5764 5760 5757 5750 5745 5740 5735 5731 5727 5724 5718 5714 5710 5707 5704 5702 5702 5702 5701 5700 5699 5697 5696 5695 5694 5693 5692 5691 5691 5690 5689 5688 5688 5687 5688 5688 5689 5690 5690
5783 5777 5775 5766 5760 5755 5751 5745 5741 5736 5731 5727 5722 5718 5714 5709 5705 5701 5698 5696 5695 5695 5695 5695 5695 5694 5693 5692 5692 5691 5690 5689 5688 5688 5687 5686 5686 5685 5685 5685 5686 5687 5687 5688
5775 5771 5764 5757 5751 5745 5740 5735 5731 5726 5721 5716 5712 5709 5705 5700 5696 5692 5690 5688 5687 5686 5687 5688 5688 5688 5688 5688 5688 5688 5687 5687 5686 5686 5686 5685 5684 5683 5683 5683 5684 5685 5685 5685
5763 5759 5752 5746 5739 5733 5728 5723 5718 5714 5709 5705 5701 5698 5695 5691 5687 5684 5681 5679 5678 5678 5679 5680 5681 5682 5682 5682 5683 5683 5683 5683 5683 5683 5683 5683 5682 5682 5682 5682 5682 5682 5682 5682
5752 5746 5740 5733 5726 5720 5715 5709 5705 5700 5695 5691 5688 5685 5682 5680 5677 5674 5672 5670 5669 5669 5669 5671 5672 5674 5675 5675 5676 5677 5677 5678 5678 5679 5679 5679 5679 5679 5679 5679 5679 5679 5679 5679
5739 5731 5724 5718 5712 5706 5700 5695 5690 5685 5681 5677 5673 5671 5669 5667 5665 5663 5661 5660 5660 5659 5659 5661 5663 5665 5666 5668 5669 5670 5671 5672 5673 5673 5674 5674 5674 5674 5674 5675 5675 5675 5675 5675
5723 5716 5708 5702 5696 5690 5684 5679 5674 5669 5665 5661 5658 5656 5655 5653 5652 5650 5649 5649 5649 5649 5649 5650 5652 5655 5657 5659 5661 5663 5664 5665 5666 5667 5668 5669 5669 5669 5669 5670 5670 5670 5670 5670
5708 5701 5693 5686 5680 5674 5667 5662 5656 5652 5647 5644 5641 5640 5639 5638 5637 5636 5636 5636 5637 5637 5638 5639 5641 5644 5646 5649 5652 5654 5656 5657 5659 5660 5661 5662 5663 5663 5664 5664 5664 5664 5665 5665
5691 5683 5675 5668 5661 5654 5648 5642 5637 5632 5628 5625 5622 5621 5620 5620 5620 5621 5621 5622 5624 5625 5627 5629 5631 5633 5635 5638 5641 5644 5647 5649 5651 5652 5654 5655 5656 5657 5657 5658 5658 5659 5659 5659
5672 5663 5654 5647 5640 5633 5626 5619 5613 5609 5606 5603 5602 5601 5601 5601 5603 5604 5605 5607 5610 5613 5615 5617 5620 5622 5624 5627 5629 5633 5636 5639 5642 5644 5646 5647 5649 5650 5651 5651 5652 5652 5653 5653
5650 5643 5636 5628 5620 5611 5603 5594 5588 5583 5581 5579 5578 5577 5579 5582 5584 5586 5588 5590 5594 5598 5602 5605 5609 5611 5614 5616 5619 5622 5626 5630 5632 5635 5637 5639 5641 5642 5643 5644 5644 5645 5646 5647
5630 5621 5613 5604 5595 5587 5579 5571 5563 5557 5554 5552 5550 5551 5554 5559 5564 5568 5571 5573 5577 5582 5588 5592 5597 5600 5604 5607 5609 5613 5616 5620 5623 5626 5628 5630 5632 5634 5635 5636 5637 5638 5639 5640
5614 5602 5592 5583 5573 5564 5557 5551 5544 5538 5532 5527 5524 5525 5529 5535 5541 5547 5552 5556 5560 5565 5572 5577 5583 5589 5594 5598 5600 5604 5608 5611 5615 5617 5620 5622 5624 5626 5627 5629 5630 5632 5633 5633
5596 5585 5575 5566 5558 5549 5541 5534 5529 5523 5517 5511 5506 5504 5507 5512 5519 5526 5533 5539 5544 5549 5555 5562 5569 5577 5583 5588 5592 5596 5600 5603 5607 5610 5612 5615 5617 5619 5620 5621 5623 5625 5626 5627
5580 5570 5560 5551 5543 5536 5529 5522 5517 5511 5505 5500 5494 5491 5490 5494 5500 5507 5515 5523 5530 5535 5541 5548 5556 5565 5573 5579 5583 5588 5592 5596 5600 5603 5606 5608 5611 5612 5614 5615 5616 5618 5620 5621
5565 5556 5547 5539 5532 5526 5519 5513 5506 5500 5494 5489 5485 5480 5478 5480 5484 5490 5499 5508 5517 5523 5529 5536 5545 5554 5562 5569 5574 5580 5585 5590 5594 5597 5600 5603 5605 5607 5608 5609 5610 5612 5613 5615
5553 5545 5537 5530 5524 5517 5510 5503 5496 5489 5483 5478 5473 5470 5468 5468 5470 5476 5485 5494 5503 5512 5519 5526 5535 5544 5552 5559 5566 5572 5578 5583 5588 5591 5595 5597 5599 5601 5603 5604 5605 5606 5608 5609
5546 5539 5531 5524 5517 5509 5501 5493 5485 5477 5470 5465 5461 5458 5456 5456 5459 5464 5472 5482 5493 5503 5510 5518 5526 5535 5543 5551 5558 5565 5571 5576 5581 5585 5588 5591 5594 5595 5597 5598 5600 5601 5602 5603
5542 5535 5527 5519 5511 5502 5493 5484 5475 5467 5459 5453 5448 5445 5444 5445 5448 5454 5463 5474 5485 5495 5504 5511 5519 5528 5536 5544 5551 5558 5564 5570 5574 5578 5582 5585 5587 5589 5591 5593 5594 5595 5597 5598
5539 5532 5524 5515 5506 5496 5487 5477 5468 5460 5452 5445 5440 5436 5434 5436 5440 5447 5457 5468 5480 5490 5499 5506 5513 5521 5529 5537 5544 5551 5557 5563 5567 5571 5575 5578 5581 5583 5585 5587 5588 5590 5591 5592
5537 5530 5522 5514 5504 5495 5486 5476 5467 5459 5451 5443 5437 5432 5431 5433 5437 5445 5455 5466 5477 5487 5495 5502 5509 5515 5523 5531 5538 5544 5550 5555 5560 5564 5568 5571 5574 5577 5579 5580 5582 5583 5585 5586
Wind_Speed
17 19 22 22 22 26 29 28 29 30 32 32 33 34 35 35 34 32 30 30 31 30 31 30 28 27 27 26 25 24 20 18 18 18 16 16 18 21 23 25 24 22 21 20
18 21 22 21 22 25 28 28 28 30 30 30 31 32 32 32 31 29 28 28 29 28 28 27 25 23 23 22 20 17 14 12 12 12 10 10 10 12 14 16 17 18 20 21
22 23 23 22 24 26 27 27 28 30 30 30 30 31 31 31 30 28 28 28 27 26 26 25 22 21 19 18 16 13 11 9 8 7 6 6 7 9 12 15 17 19 21 22
24 24 23 22 24 26 27 27 29 30 30 30 31 31 31 33 31 28 27 27 26 25 25 23 20 18 16 15 13 12 10 9 8 8 9 10 12 13 15 17 19 21 22 22
26 26 24 25 26 26 27 26 29 30 31 31 32 31 32 34 33 30 29 26 25 24 23 21 19 16 15 13 11 10 9 8 9 9 11 12 14 16 17 18 19 19 20 20
29 29 28 30 30 29 29 29 31 31 31 33 34 34 32 34 34 31 28 25 23 23 22 20 17 15 13 11 10 9 8 8 8 9 11 12 13 15 17 18 17 16 16 15
32 33 33 33 33 33 33 33 34 34 34 35 36 36 35 34 35 33 29 24 22 23 22 19 16 14 12 10 8 7 7 8 8 9 9 9 10 12 14 14 13 11 10 10
36 36 37 38 38 38 39 37 36 36 37 37 37 37 36 35 35 33 30 25 22 23 22 19 16 14 13 11 10 8 7 7 7 8 7 7 7 8 8 9 9 9 9 10
41 41 43 44 44 44 43 42 41 40 39 39 39 39 38 36 35 33 30 26 22 24 24 22 19 17 15 14 13 12 11 10 9 8 7 6 5 5 5 5 7 8 9 9
44 46 48 49 50 49 48 47 46 44 43 41 39 39 38 37 35 33 31 28 24 24 26 25 23 20 18 17 16 16 14 13 11 10 9 7 6 6 6 6 7 8 9 10
48 50 51 52 53 53 53 52 50 49 46 43 41 39 38 37 35 34 32 29 26 24 27 28 27 25 22 20 19 18 16 15 14 13 11 10 10 9 9 9 9 10 10 11
50 51 53 54 55 55 55 55 54 52 50 46 43 40 38 37 36 35 33 31 29 26 28 30 30 29 26 23 21 20 18 17 16 15 15 14 14 13 13 13 12 12 13 13
52 54 55 56 56 56 56 56 54 54 54 52 47 42 39 39 38 37 35 33 31 29 27 30 31 31 30 28 25 23 21 20 18 17 17 17 17 17 17 16 16 15 16 16
54 55 55 55 55 56 57 56 55 55 55 55 52 46 42 41 40 39 37 35 33 32 30 29 32 33 33 32 30 28 26 24 22 21 19 18 18 18 19 19 18 18 18 17
54 54 53 54 56 56 57 57 57 56 57 57 55 51 47 43 42 41 39 37 35 34 33 30 30 32 33 33 33 32 30 28 26 24 22 21 20 20 20 20 19 19 18 18
56 54 54 56 59 61 62 62 62 61 61 63 61 56 52 47 43 42 41 38 37 36 35 33 31 30 29 30 32 33 32 30 28 27 25 25 24 23 22 21 20 20 19 18
61 59 58 62 66 69 71 72 70 66 64 65 65 62 58 50 45 43 41 40 39 38 37 36 33 30 27 27 29 30 30 30 29 28 27 26 26 25 23 22 21 20 20 19
64 66 68 70 72 72 73 72 71 70 66 65 68 67 64 57 50 46 43 41 41 41 40 38 36 33 29 27 27 28 28 28 27 26 26 25 25 24 23 22 21 21 20 20
68 68 67 65 64 62 60 58 56 54 52 52 54 57 59 56 52 49 46 42 41 41 42 42 40 36 31 28 26 26 26 26 25 24 23 23 23 23 23 23 22 21 21 21
64 63 61 59 56 55 52 47 44 43 42 41 41 42 45 47 48 49 49 45 43 40 42 44 43 40 35 31 27 26 25 24 23 22 20 20 19 20 21 22 21 21 21 21
60 57 55 51 47 44 42 42 41 39 38 37 36 33 32 35 41 47 49 47 43 41 40 44 43 41 37 32 29 27 26 24 23 21 19 17 16 16 17 18 20 20 20 20
53 50 46 43 40 39 39 39 40 40 39 37 35 32 28 28 34 41 47 45 43 40 38 41 43 41 37 33 30 28 27 25 23 21 19 17 15 14 14 15 17 19 19 19
47 43 40 39 39 39 39 41 42 42 40 37 34 31 27 24 27 35 41 44 43 39 35 40 44 42 38 34 32 30 29 27 25 23 21 18 16 14 13 13 15 17 18 18
40 38 38 39 40 41 42 43 43 42 39 37 34 30 26 23 24 30 37 41 41 38 34 36 43 43 39 35 34 32 30 28 26 25 23 20 18 16 15 13 13 14 16 17
37 37 39 40 41 43 43 42 39 36 34 32 29 26 24 21 22 26 34 38 39 36 33 33 38 41 39 36 34 33 32 30 29 27 25 23 21 19 18 16 14 14 14 14
36 37 39 40 41 41 40 38 36 33 30 27 23 19 16 16 19 25 30 33 34 32 30 30 34 38 38 37 35 33 32 32 30 29 28 26 24 23 21 20 18 17 16 16
33 35 36 36 35 35 35 35 34 33 30 27 22 15 7 10 19 26 30 29 27 26 26 27 30 35 38 39 38 36 34 33 32 31 30 29 28 26 24 23 22 20 19 18
Wind_Direction
317 310 307 308 303 297 298 301 304 306 305 306 303 301 300 297 293 287 282 282 285 292 301 306 309 313 319 320 316 308 302 285 259 248 242 235 231 230 233 235 239 244 250 256
320 313 314 314 305 300 302 306 307 306 309 310 309 308 307 303 297 290 282 281 284 291 301 306 309 314 321 323 320 314 309 297 275 257 248 237 240 244 245 247 251 256 259 264
323 320 320 315 309 307 308 310 306 307 311 314 315 316 315 308 304 296 284 281 282 289 298 303 307 311 318 323 323 318 311 301 292 277 263 268 273 265 262 264 266 267 267 269
324 323 324 318 312 311 310 310 305 307 312 315 316 318 316 312 310 305 294 282 279 285 293 298 300 304 311 316 318 314 304 291 285 280 283 282 283 282 278 275 273 270 270 270
324 324 326 320 315 314 312 310 304 306 308 309 310 313 314 311 312 309 303 288 276 278 286 292 293 293 299 307 310 308 301 289 278 275 274 278 280 279 278 277 276 274 270 269
320 321 321 316 314 312 309 307 303 303 303 304 305 307 309 305 308 309 305 293 274 271 279 286 286 282 286 293 299 303 302 295 287 282 278 276 276 278 280 281 280 273 268 266
313 314 314 312 311 309 306 304 303 302 300 299 300 302 304 302 303 306 304 294 273 265 272 277 278 272 271 276 283 288 295 299 296 291 286 282 279 281 281 278 271 266 260 254
309 310 310 309 309 306 304 306 305 303 301 299 298 299 300 301 300 301 301 294 274 261 264 268 267 263 259 263 266 271 280 291 294 296 296 292 284 280 278 269 255 252 254 255
303 305 304 305 305 304 306 306 306 305 303 300 298 297 298 298 297 296 296 292 276 258 257 260 260 258 255 258 260 263 267 273 277 282 284 278 268 264 264 257 249 249 253 255
301 302 302 302 302 303 304 305 305 304 302 299 296 295 295 295 294 292 291 288 279 261 252 254 255 255 254 256 258 260 260 261 260 261 262 258 251 246 244 247 249 250 253 257
301 299 298 298 298 299 300 301 302 302 300 296 293 290 290 291 292 290 287 286 278 266 250 248 250 252 252 253 254 254 254 252 251 251 252 250 248 247 246 248 252 255 257 260
300 299 297 296 296 296 296 296 298 298 298 294 290 286 284 284 285 285 285 282 278 270 255 245 245 247 248 250 250 250 249 248 247 247 248 249 249 250 251 252 253 256 259 262
301 299 298 297 296 295 293 292 292 292 291 290 288 284 279 277 278 279 278 277 275 269 261 247 242 242 243 245 245 246 246 246 246 247 249 250 250 249 250 251 251 252 255 258
300 299 297 295 292 290 289 287 287 287 288 287 285 282 278 274 272 272 272 270 268 266 262 253 242 240 240 241 241 242 243 245 247 249 251 253 254 252 251 250 249 248 250 253
303 300 297 294 290 288 286 284 283 283 282 284 284 282 278 272 269 267 267 265 260 260 258 254 245 240 240 240 240 240 241 243 247 249 252 256 257 255 252 249 248 247 249 251
311 307 301 295 290 287 283 281 280 280 280 280 279 278 276 271 266 265 263 260 256 254 252 250 245 243 244 243 239 238 238 241 244 249 253 256 256 255 252 249 247 247 249 253
313 307 299 291 286 283 283 285 286 284 281 278 276 274 271 268 263 260 259 254 251 248 248 247 245 245 247 245 240 236 235 238 243 248 252 254 254 254 251 249 247 246 249 253
306 302 298 296 294 292 292 294 296 296 292 284 277 273 270 265 259 255 255 253 248 244 243 243 244 245 247 247 242 235 233 236 241 247 250 251 252 252 252 250 248 246 248 253
304 303 304 305 305 305 305 305 304 303 299 293 284 276 269 265 258 251 249 249 246 241 237 236 237 239 241 243 241 235 232 233 237 242 245 247 250 253 255 253 250 248 249 252
310 310 311 311 310 310 310 311 312 311 309 306 299 287 273 264 255 249 246 246 245 242 234 231 232 234 236 238 236 231 228 228 232 236 239 244 249 255 257 255 251 249 249 250
315 316 316 315 315 315 314 314 315 315 314 313 310 302 283 263 252 246 243 242 243 242 234 228 228 230 230 230 228 225 224 225 227 229 232 238 244 252 256 254 250 248 249 248
322 322 321 320 319 319 318 317 316 315 313 312 311 308 293 268 251 242 238 237 238 238 232 224 221 221 222 221 221 219 219 222 224 224 226 231 237 245 250 250 249 249 250 249
328 328 327 325 324 322 321 319 317 314 311 308 306 304 294 274 252 239 232 231 233 233 229 220 213 213 215 216 216 215 216 219 221 222 224 229 234 241 247 249 249 249 249 250
334 333 332 330 329 327 325 323 321 318 314 309 304 297 289 274 250 234 225 224 227 228 224 216 211 211 213 214 215 215 215 217 221 226 230 233 237 241 244 246 247 249 250 252
337 337 335 334 333 332 332 331 329 326 321 316 309 297 281 264 240 221 213 214 219 223 222 217 211 209 212 214 215 215 216 219 223 228 233 237 239 242 245 246 248 250 252 255
338 338 339 339 339 340 341 341 340 338 333 329 323 308 282 245 213 198 195 201 211 217 217 213 209 209 211 214 215 216 218 221 225 229 234 238 241 243 246 248 249 251 254 259
339 340 344 348 350 350 351 351 352 354 354 354 353 346 308 210 185 177 177 185 197 206 210 208 207 210 213 216 218 219 221 225 229 232 235 238 241 243 244 247 249 252 257 263